Wind_Speed
48 48 48 48 49 49 50 51 51 51 50 49 50 49 48 47 45 44 43 41 41 42 41 40 40 41 40 39 37 36 36 35 35 35 33 32 30 29
47 47 47 48 48 49 50 51 51 51 50 49 49 47 46 45 43 42 41 40 40 40 40 39 39 40 39 38 36 35 35 34 34 33 32 30 29 27
46 47 48 49 50 50 50 49 48 48 48 47 46 44 42 42 41 41 41 40 39 39 39 39 39 38 38 37 35 35 34 33 32 31 30 29 27 26
47 48 50 50 50 51 49 48 48 48 48 46 45 43 41 40 39 40 40 39 39 38 37 37 38 37 36 35 34 34 33 32 30 29 28 26 25 24
48 49 50 50 51 48 47 48 47 47 46 45 43 42 41 40 39 39 38 38 37 36 35 35 36 36 35 34 34 33 31 30 29 28 27 26 25 24
47 48 48 48 46 45 45 46 45 44 43 42 41 41 40 38 38 36 36 35 35 35 34 35 35 34 34 33 33 31 30 29 28 27 26 25 24 23
45 46 47 46 46 45 45 45 43 42 42 41 41 40 39 38 37 35 35 34 34 34 34 34 34 33 32 32 31 30 29 28 27 26 25 24 23 22
41 42 44 45 45 45 45 44 43 43 42 42 41 39 38 38 36 34 34 33 34 34 34 33 32 32 31 30 30 29 28 27 26 25 24 23 23 22
41 41 40 41 42 43 41 40 40 40 41 41 40 38 37 35 35 34 33 32 32 33 33 31 30 30 30 29 29 28 27 26 25 24 23 22 22 21
39 39 39 39 40 40 40 39 38 37 37 38 37 36 36 35 33 32 32 32 31 30 30 29 28 29 29 28 27 27 26 25 25 25 24 23 22 22
36 37 37 38 39 39 39 39 37 36 35 33 33 33 34 33 33 33 32 31 30 30 30 29 28 28 28 28 28 26 26 25 24 24 24 23 23 22
35 35 36 36 37 37 37 36 36 35 35 34 33 32 32 32 31 31 30 30 30 30 30 29 28 28 28 28 27 26 25 24 23 23 23 23 23 22
33 34 34 33 34 34 34 34 34 33 33 33 33 32 31 31 31 30 30 30 30 30 30 29 28 28 28 27 26 26 25 24 24 23 23 23 23 23
33 33 33 31 31 31 31 30 30 30 30 31 31 31 30 30 31 31 32 33 32 31 30 29 29 28 28 27 26 25 25 24 24 24 24 24 24 24
34 33 32 31 30 30 29 29 29 29 30 30 30 30 30 30 30 30 31 32 31 30 29 28 28 28 27 26 26 26 25 24 24 24 25 25 24 24
34 33 31 31 30 29 28 28 29 29 28 28 29 29 30 30 29 29 30 30 30 29 28 28 28 27 26 26 26 26 25 25 24 25 25 25 25 24
33 32 31 31 31 30 29 29 28 27 27 27 28 28 28 28 28 28 28 29 29 29 28 28 27 26 26 26 26 26 26 25 25 24 24 25 26 25
33 32 31 30 30 30 29 28 28 27 27 27 27 27 27 27 27 27 27 28 28 28 28 27 27 27 26 26 26 26 26 26 25 25 25 25 26 26
33 31 31 30 29 28 27 27 26 27 27 27 27 27 27 27 27 27 27 27 27 27 27 27 27 27 27 27 27 27 26 26 26 26 26 26 26 26
32 31 30 28 27 26 26 26 27 27 27 27 27 27 27 27 27 27 26 26 27 27 28 27 27 27 26 27 27 27 27 27 27 27 27 27 28 28
33 32 30 28 26 26 26 26 26 26 26 26 26 26 26 27 27 27 26 26 26 27 27 27 27 27 27 27 27 28 28 28 28 28 28 28 29 28
32 31 30 28 27 26 26 26 25 26 25 25 25 26 26 27 27 27 27 26 27 27 27 27 27 27 28 28 28 28 28 28 28 29 29 29 29 29
31 31 30 28 27 26 26 26 26 26 26 26 26 26 26 27 27 27 27 27 27 28 28 28 28 28 28 28 28 28 28 28 28 29 30 30 30 30
Wind_Direction
276 276 276 277 278 279 280 281 281 281 280 279 280 281 281 280 278 276 273 271 271 271 272 274 275 275 276 278 280 281 281 284 287 289 290 290 289 287
277 276 277 277 278 279 280 280 281 280 280 279 281 281 280 278 276 274 272 271 271 270 271 273 274 275 277 278 279 279 281 284 288 288 289 288 286 285
277 276 276 277 278 279 280 280 280 280 281 280 280 280 278 275 274 272 271 270 269 268 269 270 271 273 274 276 277 279 281 284 286 286 287 286 284 283
276 275 275 277 278 278 278 277 278 278 279 279 278 277 277 274 272 272 270 268 268 267 266 266 268 270 273 275 276 279 281 283 284 283 285 284 282 281
275 273 275 276 277 277 277 276 276 276 277 277 275 274 274 274 271 272 270 267 265 265 265 265 267 270 273 273 274 276 279 281 281 281 282 281 279 278
278 276 277 278 278 277 276 275 275 275 273 273 273 271 270 271 271 271 268 265 264 265 266 266 268 270 271 271 273 276 276 277 278 278 280 278 275 274
282 280 279 280 279 279 278 276 274 273 272 271 269 269 267 268 269 267 267 267 266 266 267 268 269 269 269 271 273 273 273 274 274 274 275 274 272 272
283 283 283 282 282 282 281 277 275 273 271 267 266 266 265 266 268 267 268 268 267 267 268 269 269 268 268 268 269 269 270 270 270 270 272 271 269 269
284 285 285 284 283 283 280 277 275 272 268 266 264 265 265 266 267 267 269 270 269 269 269 267 267 266 265 265 266 266 267 267 267 268 267 266 264 264
286 287 287 287 286 283 279 276 274 272 268 264 263 263 263 265 266 267 268 269 267 267 267 266 265 263 262 261 264 265 265 264 264 265 264 264 263 263
291 290 288 287 285 281 278 276 273 270 265 263 261 263 264 264 264 266 265 265 263 263 263 264 264 264 262 262 264 264 263 262 262 261 261 260 260 260
293 293 291 289 287 281 277 274 273 271 267 265 263 265 266 264 263 262 261 261 261 261 261 262 263 261 261 262 264 262 261 260 259 258 259 257 256 256
294 293 292 291 287 282 277 274 273 271 268 267 264 264 265 263 261 261 259 260 261 261 261 262 262 261 260 262 262 260 259 257 256 255 255 255 253 253
293 291 289 289 287 282 277 275 273 273 271 267 264 262 262 263 261 261 260 260 260 261 262 262 261 260 259 259 258 257 256 255 254 251 253 252 251 251
293 290 289 288 287 284 280 275 273 272 270 268 264 264 263 263 263 261 261 261 261 261 263 262 261 259 258 257 256 255 254 253 253 251 250 250 249 249
294 292 290 289 287 284 280 275 273 273 272 270 267 267 265 262 262 263 262 260 261 260 260 259 258 257 257 256 254 252 251 251 252 252 251 249 248 247
296 293 290 288 287 285 281 277 275 274 272 270 268 267 264 260 261 260 259 260 259 258 257 257 256 255 255 254 252 251 250 249 249 249 248 247 246 245
299 296 292 288 286 284 282 277 274 273 270 267 267 265 261 259 258 258 258 258 257 257 256 256 254 253 254 253 251 250 249 248 248 248 247 246 245 244
298 298 296 290 286 284 281 277 273 271 269 267 268 265 262 260 258 259 259 258 257 257 256 256 254 253 252 252 251 249 247 247 248 248 247 247 246 245
298 297 296 291 285 281 280 278 275 271 269 267 266 264 262 260 259 259 259 258 257 257 256 255 254 252 252 251 250 249 247 247 248 247 247 247 247 247
296 296 294 289 285 280 279 279 276 272 269 268 267 265 262 259 257 257 258 258 257 256 255 254 254 252 251 251 251 250 249 248 248 247 248 248 248 248
293 292 291 288 284 280 278 276 274 272 270 269 268 266 262 259 258 257 257 258 257 255 254 253 253 252 251 251 251 250 249 249 249 248 248 248 248 248
291 290 288 284 282 279 277 276 275 273 271 269 267 265 262 261 259 258 258 257 256 254 252 252 252 253 252 251 250 249 249 249 250 250 248 247 247 248
Height
5695 5693 5691 5690 5687 5685 5682 5679 5677 5676 5676 5675 5673 5670 5668 5666 5666 5666 5667 5668 5669 5669 5670 5671 5672 5673 5674 5674 5674 5674 5674 5674 5674 5673 5673 5672 5672 5672
5683 5681 5678 5677 5674 5672 5669 5667 5664 5661 5661 5661 5659 5657 5656 5654 5654 5655 5655 5656 5657 5658 5659 5660 5661 5662 5664 5665 5665 5665 5665 5665 5665 5665 5664 5664 5664 5664
5669 5667 5666 5664 5662 5659 5656 5654 5651 5649 5648 5648 5646 5645 5644 5643 5643 5643 5644 5645 5645 5647 5648 5649 5651 5652 5654 5655 5656 5656 5656 5656 5656 5656 5656 5656 5656 5657
5656 5654 5652 5650 5648 5645 5643 5641 5639 5637 5636 5635 5635 5634 5633 5633 5633 5633 5633 5634 5635 5636 5637 5639 5641 5643 5644 5645 5646 5647 5648 5648 5648 5648 5648 5649 5649 5649
5642 5640 5638 5636 5634 5631 5629 5628 5626 5625 5624 5623 5622 5622 5622 5622 5623 5623 5623 5624 5625 5626 5628 5630 5632 5633 5635 5636 5637 5638 5639 5639 5640 5640 5640 5641 5642 5642
5628 5626 5624 5621 5619 5617 5616 5615 5613 5612 5611 5611 5611 5611 5612 5612 5612 5613 5614 5615 5616 5617 5619 5620 5622 5624 5625 5627 5629 5630 5630 5631 5632 5632 5633 5634 5634 5635
5615 5612 5610 5608 5606 5604 5603 5601 5600 5599 5599 5599 5600 5601 5601 5602 5603 5604 5605 5605 5606 5608 5610 5611 5613 5615 5616 5618 5620 5621 5622 5623 5624 5625 5625 5626 5627 5628
5603 5600 5597 5595 5593 5591 5589 5588 5587 5587 5587 5588 5589 5590 5592 5593 5594 5594 5595 5596 5598 5600 5601 5602 5604 5605 5607 5609 5611 5612 5613 5615 5616 5617 5618 5619 5620 5621
5592 5589 5586 5583 5580 5579 5577 5576 5575 5575 5576 5577 5578 5580 5582 5583 5584 5585 5586 5588 5589 5591 5592 5594 5595 5597 5598 5600 5602 5604 5605 5607 5608 5609 5611 5612 5613 5614
5580 5577 5574 5572 5569 5567 5566 5565 5565 5565 5565 5566 5568 5570 5571 5573 5574 5576 5577 5579 5580 5582 5584 5585 5587 5588 5590 5592 5594 5595 5597 5599 5601 5602 5603 5604 5606 5607
5569 5566 5563 5561 5559 5556 5555 5555 5555 5555 5555 5555 5557 5558 5561 5563 5565 5566 5568 5570 5572 5573 5575 5577 5578 5580 5582 5584 5586 5587 5589 5591 5593 5594 5596 5597 5599 5600
5560 5556 5553 5551 5548 5545 5544 5544 5544 5544 5545 5546 5547 5548 5550 5552 5555 5557 5559 5561 5563 5565 5567 5569 5570 5572 5574 5576 5578 5580 5581 5583 5585 5587 5588 5590 5592 5593
5550 5547 5544 5541 5539 5536 5534 5534 5534 5535 5536 5537 5538 5539 5541 5543 5546 5548 5550 5553 5555 5557 5559 5561 5562 5564 5566 5568 5570 5572 5574 5575 5577 5579 5581 5583 5584 5586
5541 5538 5535 5533 5530 5528 5526 5525 5525 5526 5526 5527 5529 5531 5533 5535 5537 5539 5542 5544 5546 5548 5550 5552 5554 5556 5558 5560 5562 5564 5566 5568 5569 5571 5573 5575 5577 5579
5531 5529 5526 5524 5522 5520 5518 5518 5517 5517 5518 5519 5521 5522 5524 5527 5529 5531 5533 5535 5537 5540 5542 5544 5546 5548 5550 5552 5554 5556 5558 5560 5562 5564 5566 5568 5570 5572
5523 5520 5517 5515 5514 5512 5510 5510 5509 5510 5510 5511 5512 5514 5515 5518 5520 5522 5525 5527 5529 5531 5533 5535 5537 5539 5541 5543 5546 5548 5550 5552 5554 5556 5558 5560 5562 5564
5514 5512 5509 5507 5505 5504 5503 5502 5502 5502 5502 5503 5504 5505 5507 5509 5511 5514 5516 5518 5521 5523 5525 5527 5529 5531 5533 5535 5537 5540 5542 5544 5546 5548 5550 5552 5555 5557
5505 5503 5500 5499 5497 5496 5495 5494 5494 5494 5494 5495 5496 5497 5499 5501 5503 5505 5507 5509 5512 5514 5516 5518 5520 5522 5525 5527 5529 5531 5533 5536 5538 5540 5542 5545 5547 5550
5497 5494 5491 5490 5488 5487 5486 5486 5486 5486 5486 5487 5488 5489 5490 5493 5495 5497 5499 5500 5503 5505 5507 5509 5511 5514 5516 5518 5521 5523 5525 5527 5530 5532 5535 5537 5539 5542
5488 5485 5483 5481 5479 5479 5478 5478 5477 5477 5478 5479 5480 5481 5482 5484 5486 5488 5490 5492 5494 5496 5498 5501 5503 5505 5507 5510 5512 5514 5517 5519 5522 5524 5526 5528 5531 5533
5479 5476 5474 5472 5471 5470 5470 5470 5469 5469 5470 5471 5472 5473 5474 5475 5477 5480 5481 5483 5485 5487 5490 5492 5494 5496 5498 5501 5503 5505 5508 5510 5513 5515 5518 5520 5522 5525
5469 5467 5465 5464 5463 5462 5462 5462 5462 5462 5462 5463 5463 5464 5465 5467 5469 5471 5473 5475 5477 5479 5481 5483 5485 5487 5490 5492 5494 5497 5499 5502 5504 5506 5509 5511 5513 5516
5460 5458 5456 5455 5454 5454 5454 5454 5453 5453 5454 5454 5455 5455 5457 5458 5460 5461 5463 5465 5468 5470 5472 5474 5476 5478 5481 5483 5485 5488 5490 5492 5494 5497 5499 5502 5504 5507